"Time","Temp","Dewpoint","Humidity","Pressure","Direction","Speed","Gust","Precip","PrecipRate"
"00:04:58","39.6","33.3","78","30.28","110","0","0","0.00","0.00"
"00:09:56","39.4","33.1","78","30.28","110","0","0","0.00","0.00"
"00:14:58","39.2","33.1","78.4","30.28","110","0","0","0.00","0.00"
"00:19:56","39.1","33.1","79","30.28","110","0","0","0.00","0.00"
"00:24:57","38.9","32.9","79","30.28","110","0","0","0.00","0.00"
"00:29:59","38.8","33","79.4","30.28","110","0","0","0.00","0.00"
"00:34:52","38.6","32.7","79.2","30.28","110","0.1","1.2","0.00","0.00"
"00:39:59","38.5","32.6","79","30.28","110","0.7","2.3","0.00","0.00"
"00:44:56","38.5","32.2","78","30.28","110","0.2","1.2","0.00","0.00"
"00:49:57","38.5","32","77.5","30.27","110","0","0","0.00","0.00"
"00:54:58","38.3","32.4","78.9","30.27","110","0","0","0.00","0.00"
"00:59:56","38.1","32.4","79.9","30.27","110","0","0","0.00","0.00"
"01:04:58","37.9","32.3","80","30.27","110","0","0","0.00","0.00"
"01:09:56","37.7","32.4","80.9","30.27","110","0.1","1.2","0.00","0.00"
"01:14:59","37.6","32","80.1","30.27","110","0.4","1.2","0.00","0.00"
"01:19:56","37.5","32.2","81","30.27","110","0","0","0.00","0.00"
"01:24:56","37.4","31.9","80.3","30.27","110","0","0","0.00","0.00"
"01:29:58","37.5","32.1","80.7","30.27","110","0","0","0.00","0.00"
"01:34:58","37.5","32.1","80.7","30.27","110","0","0","0.00","0.00"
"01:39:58","37.3","32","81","30.27","110","0","0","0.00","0.00"
"01:44:59","37.2","31.8","80.5","30.27","110","0","0","0.00","0.00"
"01:49:58","37.1","31.8","81","30.27","110","0","0","0.00","0.00"
"01:54:59","37","31.7","81","30.27","110","0.1","1.2","0.00","0.00"
"01:59:57","36.9","31.8","81.9","30.27","110","0","0","0.00","0.00"
"02:04:56","36.7","31.8","82.4","30.27","110","0.2","1.2","0.00","0.00"
"02:09:58","36.5","31.8","83","30.27","110","0","0","0.00","0.00"
"02:14:58","36.4","31.7","83","30.27","110","0","0","0.00","0.00"
"02:19:57","36.2","31.5","83","30.26","110","0.3","1.2","0.00","0.00"
"02:24:58","36.1","31.4","83","30.26","110","0.1","1.2","0.00","0.00"
"02:29:59","36.1","31.4","83","30.26","110","0.2","1.2","0.00","0.00"
"02:34:56","36.1","31.4","83","30.26","110","0.2","1.2","0.00","0.00"
"02:39:59","36.3","31.8","83.7","30.26","110","0.5","1.2","0.00","0.00"
"02:44:52","36.4","31.8","83.3","30.27","110","1","2.3","0.00","0.00"
"02:49:58","36.3","31.6","83","30.27","110","0.5","1.2","0.00","0.00"
"02:54:56","36.2","31.5","83","30.27","110","0.6","2.3","0.00","0.00"
"02:59:56","36.2","31.2","82.1","30.27","110","0.1","1.2","0.00","0.00"
"03:04:59","36.2","31.2","82","30.27","110","0.8","2.3","0.00","0.00"
"03:09:57","36.2","31.2","82","30.27","110","0.1","1.2","0.00","0.00"
"03:14:52","36.1","31.3","82.7","30.27","110","0.2","2.3","0.00","0.00"
"03:19:57","36","31.3","83","30.27","110","1.6","2.3","0.00","0.00"
"03:24:58","35.9","31.2","83","30.27","110","0.4","2.3","0.00","0.00"
"03:29:59","35.9","31.2","83","30.27","110","0.9","2.3","0.00","0.00"
"03:34:59","35.8","31.1","83","30.27","110","0.5","1.2","0.00","0.00"
"03:39:56","35.7","31","83","30.27","110","0.1","1.2","0.00","0.00"
"03:44:58","35.5","30.9","83.3","30.27","110","0","0","0.00","0.00"
"03:49:59","35.4","31","84","30.26","110","0","0","0.00","0.00"
"03:54:57","35.3","30.9","84","30.26","110","0","0","0.00","0.00"
"03:59:58","35.2","30.9","84","30.26","110","0","0","0.00","0.00"
"04:04:58","35.3","30.9","84","30.26","110","0.2","1.2","0.00","0.00"
"04:09:56","35.3","30.9","84","30.26","110","0","1.2","0.00","0.00"
"04:14:59","35.2","30.9","84","30.26","110","0","0","0.00","0.00"
"04:19:59","35.1","30.8","84","30.26","110","0","1.2","0.00","0.00"
"04:24:56","35","30.9","84.9","30.26","110","0","0","0.00","0.00"
"04:29:57","35.1","31","85","30.26","110","0","1.2","0.00","0.00"
"04:34:58","35.1","31","85","30.25","110","0","1.2","0.00","0.00"
"04:39:58","35","30.9","85","30.25","110","0.1","1.2","0.00","0.00"
"04:44:59","34.8","30.9","85.6","30.25","110","0.4","1.2","0.00","0.00"
"04:49:59","34.6","30.8","86","30.25","110","0.4","1.2","0.00","0.00"
"04:54:56","34.5","30.7","86","30.25","110","0","0","0.00","0.00"
"04:59:58","34.3","30.6","86.5","30.26","110","0","0","0.00","0.00"
"05:04:57","34.2","30.7","87","30.26","110","0","1.2","0.00","0.00"
"05:09:59","34.2","30.7","87","30.26","110","1","2.3","0.00","0.00"
"05:14:59","34.3","30.8","87","30.26","110","0.5","2.3","0.00","0.00"
"05:19:59","34.3","30.8","87","30.26","110","0","0","0.00","0.00"
"05:24:52","34.2","30.7","87","30.26","110","0.4","2.3","0.00","0.00"
"05:29:57","34.1","30.6","87","30.26","110","0.2","1.2","0.00","0.00"
"05:34:58","34","30.5","87","30.26","110","0.5","2.3","0.00","0.00"
"05:39:57","33.9","30.6","87.8","30.26","110","1.1","2.3","0.00","0.00"
"05:44:58","33.9","30.7","88","30.26","110","0.6","2.3","0.00","0.00"
"05:49:59","33.9","30.7","88","30.25","110","0","0","0.00","0.00"
"05:54:52","33.9","30.6","87.8","30.25","110","0","0","0.00","0.00"
"05:59:57","33.8","30.4","87.5","30.25","110","0.1","1.2","0.00","0.00"
"06:04:58","33.7","30.4","87.6","30.25","110","0","1.2","0.00","0.00"
"06:09:58","33.6","30.2","87.3","30.25","110","0","0","0.00","0.00"
"06:14:57","33.5","30.3","88","30.26","110","0.9","2.3","0.00","0.00"
"06:19:57","33.6","30.4","88","30.26","110","0.9","2.3","0.00","0.00"
"06:24:57","33.7","30.5","88","30.26","110","0.4","1.2","0.00","0.00"
"06:29:58","33.7","30.5","88","30.27","110","0","1.2","0.00","0.00"
"06:34:58","33.8","30.6","88","30.27","110","0.2","1.2","0.00","0.00"
"06:39:57","33.8","30.7","88.3","30.27","110","0.3","2","0.00","0.00"
"06:44:58","33.9","31","89.2","30.28","110","0.3","1.2","0.00","0.00"
"06:49:56","34.2","31.6","90","30.28","110","0.3","1.2","0.00","0.00"
"06:54:57","34.6","32","90","30.28","100","0.7","2.3","0.00","0.00"
"06:59:58","35.2","32.5","89.9","30.28","99","0.4","2.3","0.00","0.00"
"07:04:58","35.6","32.7","89","30.28","98","0.7","2.3","0.00","0.00"
"07:09:57","35.9","32.7","88","30.28","98","0.5","2.3","0.00","0.00"
"07:14:57","36.2","32.9","87.6","30.28","74","0.3","3","0.00","0.00"
"07:19:52","36.6","33.1","87","30.28","62","1.2","3.5","0.00","0.00"
"07:24:59","36.9","33.2","86.4","30.28","62","0","0","0.00","0.00"
"07:29:57","37.1","33.3","86.1","30.29","62","0","1","0.00","0.00"
"07:34:59","37.3","33.7","86.6","30.29","62","0","1.2","0.00","0.00"
"07:39:58","37.6","33.8","85.9","30.29","62","0.6","1.2","0.00","0.00"
"07:44:56","38","33.9","85.1","30.29","62","0","1.2","0.00","0.00"
"07:49:58","38.3","34.3","85.5","30.29","62","0.3","1.2","0.00","0.00"
"07:54:59","38.6","34.5","85","30.29","62","0","0","0.00","0.00"
"07:59:58","38.9","34.8","85","30.29","62","0.9","2.3","0.00","0.00"
"08:04:57","39.5","35.6","85.6","30.29","62","0.8","2.3","0.00","0.00"
"08:09:56","40.4","36.3","85.6","30.29","59","0.7","3","0.00","0.00"
"08:14:59","41.2","36.3","82.5","30.30","11","1.6","3.5","0.00","0.00"
"08:19:57","42","36.4","80.5","30.30","310","1","3.5","0.00","0.00"
"08:24:58","42.8","36.9","79.7","30.30","289","1.1","3","0.00","0.00"
"08:29:52","43.6","37.2","77.8","30.30","292","1.3","3","0.00","0.00"
"08:34:58","44.2","37.1","76.1","30.30","293","1.5","3.5","0.00","0.00"
"08:39:57","44.5","37.8","77","30.30","294","0.3","2.3","0.00","0.00"
"08:44:59","45","38.5","78","30.30","293","0.1","1.2","0.00","0.00"
"08:49:57","45.7","39.1","77.4","30.30","293","0.8","2.3","0.00","0.00"
"08:54:58","46.5","39","74.9","30.30","294","1","3.5","0.00","0.00"
"08:59:58","46.9","38.4","72","30.30","302","1.6","3.5","0.00","0.00"
"09:04:57","47","38.3","71.6","30.30","298","0.8","3","0.00","0.00"
"09:09:56","47.2","38.3","71.2","30.30","329","2.5","4","0.00","0.00"
"09:14:59","47.2","38.5","71.5","30.31","337","2.3","4","0.00","0.00"
"09:19:52","47.2","38.5","71.6","30.31","335","2.2","3.5","0.00","0.00"
"09:24:58","47.4","38.6","71.3","30.31","329","1.8","4","0.00","0.00"
"09:29:59","47.9","38.8","70.6","30.31","343","1.4","3.5","0.00","0.00"
"09:34:52","48.3","38.9","69.9","30.31","335","1.5","4","0.00","0.00"
"09:39:58","48.7","38.9","68.6","30.31","329","1.8","5","0.00","0.00"
"09:44:59","49.3","39.2","67.8","30.31","330","2.3","6","0.00","0.00"
"09:49:56","50","39.5","67.1","30.31","321","1.2","3.5","0.00","0.00"
"09:54:58","50.7","39.8","66.1","30.31","324","0.9","2.3","0.00","0.00"
"09:59:59","51.3","39.8","64.6","30.31","326","0.5","2.3","0.00","0.00"
"10:04:56","51.9","40.3","64.5","30.31","342","1.9","5","0.00","0.00"
"10:09:59","52.2","40","63","30.31","75","1.9","4","0.00","0.00"
"10:14:56","52.4","40.3","63.2","30.31","20","1.3","4","0.00","0.00"
"10:19:59","52.9","40.4","62.6","30.30","2","1.7","5","0.00","0.00"
"10:24:59","53.5","40.9","62.3","30.30","343","1.8","6","0.00","0.00"
"10:29:59","54.2","41.1","61.1","30.30","40","2.2","6","0.00","0.00"
"10:34:57","54.6","41.4","61","30.30","60","2","4","0.00","0.00"
"10:39:59","55.1","42","61.3","30.30","4","0.9","3","0.00","0.00"
"10:44:57","55.4","42.1","61","30.30","88","3","6","0.00","0.00"
"10:49:57","55.3","42","60.9","30.29","45","2.1","5","0.00","0.00"
"10:54:57","55.5","42.5","61.5","30.29","74","1.9","7","0.00","0.00"
"10:58:55","55.8","42.7","61.4","30.29","52","1.1","4.6","0.00","0.00"
"11:04:59","56.2","43.1","61.5","30.29","104","2","4.6","0.00","0.00"
"11:09:57","56.3","43.1","61.3","30.29","89","1.3","3.5","0.00","0.00"
"11:14:57","56.6","43.4","61.2","30.29","41","1.7","4","0.00","0.00"
"11:19:58","56.8","43.3","60.5","30.29","70","1.9","5","0.00","0.00"
"11:24:56","57","43.5","60.6","30.29","346","1.5","4","0.00","0.00"
"11:29:57","57.3","43.9","60.8","30.29","28","1.4","3.5","0.00","0.00"
"11:34:59","57.6","43.9","60.3","30.29","55","1.1","4","0.00","0.00"
"11:39:57","57.8","44.2","60.5","30.29","86","1.9","5","0.00","0.00"
"11:44:58","58","44.3","60.3","30.29","25","2.2","5","0.00","0.00"
"11:49:58","58.4","44.7","60.3","30.29","93","2.4","5","0.00","0.00"
"11:54:59","58.8","44.8","59.7","30.29","340","2.2","7","0.00","0.00"
"11:59:56","59.2","44.8","58.7","30.29","65","0.9","3.5","0.00","0.00"
"12:04:59","59.8","45.3","58.8","30.28","69","1.6","4","0.00","0.00"
"12:09:57","60.3","45.6","58.4","30.28","71","2.2","6","0.00","0.00"
"12:14:59","60.5","45.8","58.5","30.28","103","2.4","7","0.00","0.00"
"12:19:59","60.9","46.4","58.8","30.28","58","1.6","6","0.00","0.00"
"12:24:56","61.5","46.8","58.5","30.28","56","2","5","0.00","0.00"
"12:29:51","61.7","47","58.5","30.28","64","1.4","6","0.00","0.00"
"12:34:57","61.8","46.8","57.8","30.28","88","2.4","5.8","0.00","0.00"
"12:39:59","62","47.1","58.1","30.28","110","2.1","4","0.00","0.00"
"12:44:59","62.1","47.7","59.1","30.28","33","2.1","6","0.00","0.00"
"12:49:56","62.6","48.5","59.9","30.27","61","2.1","4","0.00","0.00"
"12:54:57","63","48.3","58.6","30.27","70","2.5","6","0.00","0.00"
"12:59:57","63.3","48.8","59.2","30.27","95","2.9","6","0.00","0.00"
"13:04:59","63.5","48.3","57.5","30.26","73","1.6","6","0.00","0.00"
"13:09:57","63.6","48.3","57.6","30.26","79","3.4","7","0.00","0.00"
"13:14:59","63.6","48.5","57.9","30.26","66","2.3","6","0.00","0.00"
"13:19:59","63.9","49.2","58.8","30.26","94","3.7","9","0.00","0.00"
"13:24:55","64.1","48.9","57.8","30.26","57","2.2","7","0.00","0.00"
"13:29:56","63.9","48.5","57.2","30.26","359","1.3","6","0.00","0.00"
"13:34:58","63.8","48.5","57.4","30.25","58","1.1","3.5","0.00","0.00"
"13:39:57","63.9","48.7","57.6","30.25","127","2.2","5","0.00","0.00"
"13:44:57","64.3","49.3","58.2","30.25","117","2.5","6","0.00","0.00"
"13:49:58","65.3","50.5","58.9","30.24","79","3.8","7","0.00","0.00"
"13:54:58","66.2","50.6","57.1","30.24","65","2","6","0.00","0.00"
"13:59:58","66.5","50.1","55.5","30.24","75","2.5","5.8","0.00","0.00"
"14:04:56","66.2","49.4","54.7","30.23","103","1.9","4.6","0.00","0.00"
"14:09:58","66","49.6","55.5","30.23","92","1.8","4","0.00","0.00"
"14:14:57","65.8","49.6","55.9","30.23","90","3.1","7","0.00","0.00"
"14:19:58","65.7","49.2","55.3","30.23","156","2.4","6","0.00","0.00"
"14:24:59","65.7","49.9","56.7","30.23","161","1.8","5","0.00","0.00"
"14:29:56","65.9","49.5","55.5","30.23","127","2","4","0.00","0.00"
"14:34:58","66.1","49.7","55.5","30.22","144","1.5","8","0.00","0.00"
"14:39:52","66","50","56.2","30.22","83","3.8","9","0.00","0.00"
"14:44:56","66","50","56.4","30.22","73","3.5","5.8","0.00","0.00"
"14:49:57","66.3","50.2","56.1","30.21","107","3.8","12","0.00","0.00"
"14:54:58","66.9","50.9","56.5","30.21","126","4","9.2","0.00","0.00"
"14:59:59","67.5","51","55.6","30.21","108","4.4","7","0.00","0.00"
"15:04:58","67.4","50.3","54.4","30.20","119","3.6","7","0.00","0.00"
"15:09:55","66.9","50.2","54.9","30.20","73","2.6","6.9","0.00","0.00"
"15:14:58","66.6","50.1","55.3","30.20","85","3.5","6","0.00","0.00"
"15:19:59","66.1","49.7","55.5","30.20","80","3.3","7","0.00","0.00"
"15:24:59","65.8","50.1","56.8","30.20","85","2.3","5","0.00","0.00"
"15:29:56","66","50.3","56.9","30.20","119","2.4","7","0.00","0.00"
"15:34:56","66.1","50.4","57","30.19","107","3.2","7","0.00","0.00"
"15:39:59","66.1","50.1","56.4","30.19","121","3.6","8","0.00","0.00"
"15:44:57","65.9","50","56.5","30.19","108","2.8","5.8","0.00","0.00"
"15:49:58","65.9","50.2","57","30.18","107","3.3","7","0.00","0.00"
"15:54:58","66.1","50.4","56.9","30.18","107","4.3","9.2","0.00","0.00"
"15:59:56","66.3","50.7","57.1","30.18","135","2.9","7","0.00","0.00"
"16:04:56","66.6","50.8","57","30.17","97","4.1","7","0.00","0.00"
"16:09:57","66.4","50.3","56.2","30.17","105","3.9","7","0.00","0.00"
"16:14:59","66.1","50.5","57.2","30.18","92","4.7","7","0.00","0.00"
"16:19:56","65.9","50.2","57","30.18","102","3.3","7","0.00","0.00"
"16:24:59","65.8","50.2","57.3","30.18","108","2.3","4","0.00","0.00"
"16:29:59","65.7","50.7","58.3","30.18","95","2.3","9","0.00","0.00"
"16:34:56","65.8","50.8","58.4","30.17","98","4.4","9.2","0.00","0.00"
"16:39:57","65.8","50.7","58.1","30.17","106","4.1","7","0.00","0.00"
"16:44:58","66","50.9","58.2","30.17","96","3.7","10.4","0.00","0.00"
"16:49:59","66.1","50.9","57.9","30.17","93","4.8","11.5","0.00","0.00"
"16:54:58","66","50.5","57.3","30.17","85","5.9","12","0.00","0.00"
"16:59:57","66","50.7","57.8","30.17","89","4","8.1","0.00","0.00"
"17:04:56","66.1","50.4","57","30.17","113","3.2","9.2","0.00","0.00"
"17:09:59","66.1","50.4","57","30.17","119","2.2","5.8","0.00","0.00"
"17:14:57","66.2","50.7","57.3","30.18","126","2.1","5","0.00","0.00"
"17:19:57","66.2","50.5","56.9","30.18","92","3.6","7","0.00","0.00"
"17:24:58","65.9","50","56.4","30.18","102","4","7","0.00","0.00"
"17:29:58","65.6","50","57.2","30.18","91","4.1","9","0.00","0.00"
"17:34:58","65.4","49.9","57.2","30.17","93","4.3","9.2","0.00","0.00"
"17:39:56","65.3","50","57.7","30.17","97","3.9","9.2","0.00","0.00"
"17:44:57","65.3","50","57.8","30.17","85","3.9","10.4","0.00","0.00"
"17:49:57","65.4","50","57.6","30.17","96","3.6","6.9","0.00","0.00"
"17:54:58","65.3","49.7","57.1","30.17","87","5.1","9.2","0.00","0.00"
"17:59:59","65.1","49.6","57.3","30.17","97","2.9","6","0.00","0.00"
"18:04:57","64.9","49.5","57.4","30.17","103","3.6","10.4","0.00","0.00"
"18:09:58","64.9","49.6","57.6","30.17","96","3.9","9.2","0.00","0.00"
"18:14:57","64.8","49.3","57.1","30.17","95","4.8","9.2","0.00","0.00"
"18:19:58","64.7","49.3","57.5","30.17","92","4.2","10","0.00","0.00"
"18:24:58","64.5","49.4","58.1","30.17","94","4.5","10.4","0.00","0.00"
"18:29:57","64.3","49.2","58","30.17","106","4.1","8","0.00","0.00"
"18:34:57","64.2","49.2","58.2","30.17","97","4.7","9.2","0.00","0.00"
"18:39:59","64","48.9","58","30.17","94","3.6","6","0.00","0.00"
"18:44:59","63.8","48.7","58","30.17","101","2.9","9","0.00","0.00"
"18:49:59","63.5","48.4","58","30.16","95","3.4","5.8","0.00","0.00"
"18:54:57","63.2","48.3","58.2","30.16","94","3.2","6","0.00","0.00"
"18:59:58","63.1","48.5","59","30.16","92","3.6","7","0.00","0.00"
"19:04:57","63","48.2","58.6","30.16","99","3.4","8","0.00","0.00"
"19:09:59","62.9","47.9","58","30.16","116","3.2","8.1","0.00","0.00"
"19:14:56","62.8","47.5","57.3","30.16","110","3.8","9.2","0.00","0.00"
"19:19:59","62.8","47.2","56.7","30.16","110","3.7","7","0.00","0.00"
"19:24:57","62.8","46.7","55.7","30.16","103","3.5","9","0.00","0.00"
"19:29:59","62.7","46.2","54.8","30.17","106","4.7","11.5","0.00","0.00"
"19:34:57","62.5","46.1","55","30.17","104","4.4","11","0.00","0.00"
"19:39:58","62.4","46","55","30.17","103","3.4","6","0.00","0.00"
"19:44:56","62.2","46.3","55.9","30.17","103","3.8","9","0.00","0.00"
"19:49:58","62.1","46.6","56.8","30.17","106","3.4","6","0.00","0.00"
"19:54:59","62","46.7","57.2","30.17","99","3.9","12","0.00","0.00"
"19:59:56","61.9","46.6","57.1","30.17","104","3","11.5","0.00","0.00"
"20:04:59","61.8","46.6","57.4","30.17","96","2.7","5","0.00","0.00"
"20:09:58","61.6","46.5","57.6","30.17","95","1.7","3.5","0.00","0.00"
"20:14:56","61.4","46.5","58","30.17","95","1","3","0.00","0.00"
"20:19:57","61.2","46.5","58.4","30.17","90","2.2","5","0.00","0.00"
"20:24:58","61","46.6","59","30.17","100","2","4","0.00","0.00"
"20:29:58","60.9","46.6","59.3","30.18","101","1.8","3.5","0.00","0.00"
"20:34:59","60.8","46.8","60","30.18","102","1","2.3","0.00","0.00"
"20:39:58","60.7","46.7","60","30.18","102","1.1","3","0.00","0.00"
"20:44:58","60.6","46.8","60.4","30.18","108","2","4","0.00","0.00"
"20:49:56","60.6","47.1","61","30.18","108","1.2","3.5","0.00","0.00"
"20:54:58","60.5","47","61","30.18","94","1.9","4","0.00","0.00"
"20:59:59","60.4","47.3","61.9","30.18","94","2.5","5","0.00","0.00"
"21:04:59","60.3","47.2","62","30.17","98","2.5","4.6","0.00","0.00"
"21:09:57","60.2","47.5","62.9","30.17","99","1.7","3.5","0.00","0.00"
"21:14:57","60","47.5","63.2","30.18","101","1.6","3.5","0.00","0.00"
"21:19:59","59.8","47.5","63.8","30.18","104","1.3","3.5","0.00","0.00"
"21:24:57","59.5","47.4","64.2","30.18","105","1","2.3","0.00","0.00"
"21:29:58","59.4","47.6","65","30.18","105","1.3","3","0.00","0.00"
"21:34:56","59.2","47.4","65","30.18","101","1.2","3.5","0.00","0.00"
"21:39:59","59.1","47.3","65","30.18","101","0.5","2.3","0.00","0.00"
"21:44:56","59.1","47.7","66","30.18","101","0.4","1.2","0.00","0.00"
"21:49:52","59","47.8","66.3","30.18","97","1.3","5","0.00","0.00"
"21:54:58","58.9","48","67","30.18","92","2.3","5","0.00","0.00"
"21:59:58","58.8","47.9","67","30.18","97","2.2","6","0.00","0.00"
"22:04:58","58.8","48.2","67.9","30.17","97","2.6","7","0.00","0.00"
"22:09:57","58.7","48.2","68","30.17","98","1.7","4","0.00","0.00"
"22:14:59","58.6","48.4","68.8","30.17","107","2","4","0.00","0.00"
"22:19:57","58.6","48.6","69.4","30.17","108","2.6","6","0.00","0.00"
"22:24:58","58.6","48.8","70","30.17","98","2.9","5","0.00","0.00"
"22:29:59","58.7","48.9","70","30.17","109","3.1","5","0.00","0.00"
"22:34:59","58.7","48.9","70","30.17","98","2","3.5","0.00","0.00"
"22:39:56","58.6","48.8","70","30.17","105","2.4","5","0.00","0.00"
"22:44:58","58.6","48.8","70","30.17","111","2.4","5","0.00","0.00"
"22:49:59","58.6","49.1","70.8","30.17","104","4.1","8.1","0.00","0.00"
"22:54:56","58.6","49.2","71","30.17","97","3.8","6.9","0.00","0.00"
"22:59:57","58.6","49.2","71","30.17","113","3.1","7","0.00","0.00"
"23:04:59","58.6","49.3","71.2","30.16","110","3.8","7","0.00","0.00"
"23:09:58","58.6","49.6","72","30.16","102","2.6","5","0.00","0.00"
"23:14:56","58.6","49.6","72","30.17","109","2.4","10.4","0.00","0.00"
"23:19:56","58.5","49.5","72","30.17","107","2.2","4","0.00","0.00"
"23:24:56","58.5","49.5","72","30.17","109","1.8","3.5","0.00","0.00"
"23:29:57","58.4","49.5","72.4","30.17","119","2.2","7","0.00","0.00"
"23:34:57","58.3","49.7","73","30.16","115","2.4","5.8","0.00","0.00"
"23:39:58","58.3","49.7","73","30.16","119","2.5","6","0.00","0.00"
"23:44:59","58.3","49.8","73.4","30.16","127","2.5","4.6","0.00","0.00"
"23:49:59","58.3","50","74","30.16","109","2.1","7","0.00","0.00"
"23:54:55","58.2","50","74.1","30.16","105","3.5","6.9","0.00","0.00"
"23:59:56","58.1","50.1","74.6","30.16","121","2.9","5","0.00","0.00"
